[[{"header":{"parameterUnit":"m.s-1","parameterCategory":1,"la1":30.2991,"la2":30.254,"lo1":-89.0895,"lo2":-89.0444,"dy":0.0017,"dx":0.0017,"nx":28,"ny":28,"refTime":"2025-07-22T09:00:00:Z","depth":0,"parameterNumber":2,"parameterNumberName":"U-component_of_WINDS"},"data":[0,0,0,0,0,0,0,0,0,0,0,0,0,0,0,0,0,0,0,0,0,0,0,0,0,0,0,0,0,0,0,0,0,0,0,0,0,0,0,0,0,0,0,0,0,0,0,0,0,0,0,0,0,0,0,0,0,0,3.16,3.1602,0,3.1714,3.1715,3.1717,3.165,3.1647,3.1644,3.1641,3.176,3.1766,3.1772,0,0,0,0,0,0,0,0,0,0,0,0,0,3.1327,3.1332,3.16,3.1602,3.1603,3.1714,3.1715,3.1717,3.1651,3.1647,3.1643,3.1639,3.1758,3.1765,3.1773,0,0,0,0,0,0,0,0,0,0,0,0,0,3.1444,3.1334,3.16,3.1583,3.1583,3.1713,3.1715,3.1717,3.1652,3.1647,3.1642,3.1637,3.1755,3.1764,3.1774,3.1928,0,0,3.1802,3.1806,0,0,0,0,0,0,0,0,3.1437,3.1454,3.1584,3.1585,3.1585,3.1663,3.1663,3.1788,3.1653,3.1626,3.1641,3.1635,3.1732,3.1743,3.1775,3.1933,3.1938,3.1803,3.1808,3.1812,3.1815,0,0,0,0,0,0,0,3.1429,3.1449,3.1645,3.1586,3.1587,3.1571,3.1582,3.1686,3.1705,3.1628,3.1623,3.1637,3.1731,3.1766,3.1777,3.194,3.1802,3.1811,3.1816,3.182,3.2229,3.2234,0,0,0,0,0,0,3.1422,3.1442,3.1642,3.1649,3.1497,3.1579,3.1592,3.1643,3.1703,3.1708,3.1641,3.1634,3.1752,3.1766,3.1781,3.1964,3.1812,3.1821,3.1826,3.2223,3.223,3.2236,0,0,0,0,0,0,3.1417,3.1441,3.1637,3.1544,3.1568,3.1589,3.1647,3.1647,3.1682,3.1713,3.1717,3.1674,3.1749,3.1768,3.1891,3.1967,3.1825,3.1833,3.2217,3.2225,3.2233,3.2332,0,0,0,0,0,0,3.1409,3.1439,3.1498,3.1546,3.1573,3.1745,3.1651,3.1653,3.1698,3.1689,3.1745,3.1749,3.1747,3.1877,3.19,3.1977,3.1841,3.221,3.2221,3.223,3.2322,3.2342,3.236,0,0,0,0,0,3.1399,3.1522,3.1501,3.1525,3.1647,3.175,3.1765,3.1759,3.1705,3.1764,3.1783,3.1747,3.1955,3.1891,3.1916,3.1997,3.2206,3.2218,3.223,3.2313,3.2338,3.2359,0,0,0,0,0,0,3.1483,3.1528,3.1505,3.1647,3.1695,3.1738,3.1813,3.1786,3.1851,3.1841,3.1831,3.1844,3.1972,3.1997,3.1924,3.2148,3.2072,3.2089,3.2127,3.2151,3.2169,3.2161,3.1848,0,0,0,0,0,3.1518,3.1597,3.1632,3.1754,3.1779,3.1792,3.1836,3.1827,3.1877,3.1897,3.1926,3.1976,3.2052,3.2103,3.2175,3.2325,3.2336,3.2393,3.2412,3.2427,3.2442,3.2522,3.2547,3.2275,3.2275,3.2274,0,0,3.1591,3.1625,3.1676,3.1771,3.1807,3.189,3.1809,3.19,3.1961,3.1911,3.2029,3.2052,3.2107,3.2244,3.2305,3.2268,3.252,3.2442,3.2454,3.2461,3.2537,3.2563,3.2586,3.2283,3.2281,3.228,0,0,3.1765,3.18,3.1904,3.1941,3.1996,3.2004,3.2029,3.2076,3.2089,3.2207,3.217,3.2243,3.2375,3.2415,3.2453,3.2642,3.2611,3.2666,3.2764,3.2842,3.2863,3.2882,3.2948,3.2972,3.2681,3.2681,3.2681,0,3.1849,3.1971,3.1961,3.2054,3.2097,3.2054,3.2159,3.2197,3.2273,3.2304,3.2261,3.2424,3.2459,3.2603,3.2649,3.2682,3.2709,3.2659,3.2861,3.288,3.2897,3.296,3.2985,3.2687,3.2686,3.2686,3.2685,0,3.2071,3.2156,3.2234,3.2307,3.2358,3.2457,3.2462,3.2516,3.2502,3.2514,3.2634,3.2673,3.2752,3.2785,3.2774,3.2929,3.2904,3.2861,3.2784,3.293,3.2988,3.3012,3.2696,3.2694,3.2692,3.269,0,0,3.2302,3.2367,3.2396,3.2428,3.2485,3.255,3.2647,3.2723,3.2768,3.2822,3.2903,3.3014,3.2975,3.3018,3.301,3.3079,3.3223,3.3027,3.3028,3.3061,3.3395,3.3426,3.3454,3.3203,3.3208,3.3211,3.339,0,3.248,3.2647,3.264,3.2797,3.2875,3.2835,3.2919,3.2963,3.2977,3.3045,3.306,3.3139,3.3081,3.3107,3.3173,3.3192,3.329,3.3179,3.3278,3.3281,3.3264,3.3485,3.3519,3.3685,3.3413,3.3417,3.342,0,3.2709,3.2769,3.2933,3.2977,3.3009,3.3085,3.3152,3.3218,3.3267,3.3272,3.332,3.33,3.3398,3.3319,3.3453,3.3378,3.3418,3.3433,3.3439,3.3448,3.3359,3.3499,3.3738,3.3763,3.3456,3.3453,3.3451,0,3.286,3.2982,3.3095,3.3124,3.3178,3.3232,3.3257,3.3301,3.3346,3.3406,3.3435,3.3506,3.3545,3.36,3.36,3.3543,3.3736,3.3657,3.3742,3.3743,3.3785,3.3782,3.4033,3.3812,3.3812,3.3811,3.3811,0,3.3058,3.316,3.3163,3.3233,3.3345,3.3336,3.3448,3.3468,3.3507,3.358,3.3551,3.362,3.3616,3.3687,3.3688,3.3798,3.3816,3.3823,3.3822,3.3825,3.3824,3.3851,3.3839,3.3818,3.3816,3.3815,3.3814,0,3.3246,3.3252,3.3373,3.3413,3.3426,3.3507,3.3542,3.3608,3.3618,3.3711,3.3732,3.3749,3.383,3.3836,3.393,3.393,3.4064,3.4051,3.4047,3.4044,3.4129,3.4121,3.4406,3.4442,3.4198,3.4201,3.4203,0,3.3372,3.3449,3.3497,3.3543,3.3571,3.3646,3.3691,3.3685,3.3734,3.3794,3.3853,3.3931,3.3993,3.4124,3.4145,3.4216,3.4204,3.4299,3.4215,3.4215,3.4204,3.4199,3.4206,3.4315,3.4318,3.432,3.4322,0,3.3594,3.3593,3.3659,3.3726,3.3781,3.3834,3.3883,3.3923,3.3923,3.3979,3.406,3.4108,3.4203,3.428,3.435,3.4376,3.435,3.4348,3.4371,3.4375,3.437,3.4373,3.4091,3.4342,3.434,3.4338,3.4337,3.4336,3.3754,3.382,3.3863,3.3938,3.3974,3.402,3.4084,3.4101,3.4169,3.4245,3.4237,3.4327,3.4373,3.4463,3.4495,3.4565,3.4533,3.4568,3.4576,3.4585,3.4593,3.4359,3.4578,3.4578,3.4577,3.4577,3.4576,0,3.3974,3.3999,3.4068,3.4137,3.4195,3.4163,3.4216,3.4267,3.4346,3.4391,3.4451,3.4544,3.4619,3.4645,3.4717,3.4769,3.4758,3.4788,3.4784,3.479,3.4618,3.459,3.4795,3.4795,3.4795,3.4795,3.4795,3.4795,3.4095,3.4204,3.4208,3.4334,3.4359,3.4446,3.4479,3.4521,3.4556,3.4661,3.4722,3.4738,3.4775,3.485,3.4917,3.4922,3.495,3.4985,3.4986,3.4824,3.4802,3.4781,3.4755,3.4991,3.4992,3.5152,3.5153,3.5154]},{"header":{"parameterUnit":"m.s-1","parameterCategory":1,"la1":30.2991,"la2":30.254,"lo1":-89.0895,"lo2":-89.0444,"dy":0.0017,"dx":0.0017,"nx":28,"ny":28,"refTime":"2025-07-22T09:00:00:Z","depth":0,"parameterNumber":3,"parameterNumberName":"V-component_of_WINDS"},"data":[0,0,0,0,0,0,0,0,0,0,0,0,0,0,0,0,0,0,0,0,0,0,0,0,0,0,0,0,0,0,0,0,0,0,0,0,0,0,0,0,0,0,0,0,0,0,0,0,0,0,0,0,0,0,0,0,0,0,0.8272,0.8272,0,0.8296,0.8296,0.8297,0.8252,0.8251,0.8249,0.8248,0.8276,0.8278,0.828,0,0,0,0,0,0,0,0,0,0,0,0,0,0.8188,0.819,0.8272,0.8272,0.8272,0.8296,0.8296,0.8297,0.8252,0.8251,0.8249,0.8247,0.8275,0.8278,0.8281,0,0,0,0,0,0,0,0,0,0,0,0,0,0.822,0.8191,0.8272,0.8253,0.8251,0.8296,0.8296,0.8297,0.8253,0.8251,0.8248,0.8246,0.8275,0.8278,0.8281,0.8346,0,0,0.8291,0.8292,0,0,0,0,0,0,0,0,0.8218,0.8223,0.8255,0.8254,0.8253,0.8269,0.8277,0.8313,0.8253,0.8252,0.8248,0.8245,0.8276,0.8279,0.8288,0.8347,0.8348,0.8291,0.8293,0.8294,0.8295,0,0,0,0,0,0,0,0.8216,0.8222,0.8281,0.8256,0.8254,0.8244,0.8246,0.8284,0.8277,0.8252,0.8249,0.8252,0.8275,0.8285,0.8289,0.8349,0.8291,0.8294,0.8296,0.8297,0.8461,0.8463,0,0,0,0,0,0,0.8216,0.822,0.8281,0.8282,0.823,0.8247,0.825,0.8266,0.8276,0.8275,0.8254,0.825,0.8281,0.8285,0.829,0.8366,0.8294,0.8297,0.8299,0.8459,0.8462,0.8464,0,0,0,0,0,0,0.8214,0.8222,0.828,0.825,0.8257,0.8251,0.827,0.8268,0.8278,0.8277,0.8276,0.8267,0.8279,0.8285,0.8332,0.8366,0.8299,0.8302,0.8456,0.846,0.8463,0.8519,0,0,0,0,0,0,0.8212,0.8221,0.8246,0.8251,0.8259,0.8321,0.8272,0.827,0.8284,0.8279,0.8289,0.8288,0.8278,0.8327,0.8335,0.8369,0.8304,0.8453,0.8458,0.8462,0.8515,0.8525,0.8533,0,0,0,0,0,0.8209,0.8262,0.8247,0.8255,0.8289,0.8323,0.8328,0.8314,0.8287,0.8311,0.831,0.8288,0.8361,0.8332,0.8341,0.8377,0.8451,0.8456,0.8461,0.851,0.8523,0.8533,0,0,0,0,0,0,0.8262,0.8262,0.8246,0.8302,0.8313,0.8316,0.8346,0.8327,0.8347,0.8342,0.8325,0.8328,0.8378,0.8382,0.835,0.844,0.8401,0.8409,0.8435,0.8447,0.8456,0.8455,0.8307,0,0,0,0,0,0.828,0.8307,0.8306,0.8355,0.8361,0.8353,0.8367,0.8355,0.8367,0.8372,0.8374,0.8387,0.8412,0.843,0.8453,0.8514,0.8516,0.8543,0.8552,0.856,0.8567,0.8599,0.8611,0.8482,0.8482,0.8482,0,0,0.8318,0.8321,0.8339,0.8365,0.8373,0.8402,0.8357,0.839,0.8412,0.8377,0.8421,0.8423,0.8436,0.849,0.8514,0.8495,0.8603,0.8567,0.8573,0.8576,0.8606,0.8618,0.8629,0.8486,0.8485,0.8485,0,0,0.8401,0.8406,0.8447,0.8455,0.8465,0.8459,0.8469,0.8475,0.8474,0.8518,0.8492,0.8518,0.8562,0.8572,0.8583,0.8668,0.8648,0.8676,0.8726,0.8757,0.8767,0.8776,0.8807,0.8818,0.8683,0.8683,0.8683,0,0.8447,0.8489,0.8471,0.8505,0.8518,0.8485,0.8527,0.8536,0.8554,0.8564,0.8541,0.8596,0.8602,0.8658,0.8678,0.8688,0.8699,0.8676,0.8767,0.8776,0.8784,0.8813,0.8825,0.8687,0.8686,0.8686,0.8686,0,0.8545,0.8574,0.8606,0.8623,0.8639,0.8677,0.8665,0.8683,0.867,0.8666,0.871,0.8716,0.874,0.8752,0.874,0.8806,0.8794,0.877,0.8731,0.88,0.8827,0.8838,0.8691,0.869,0.8689,0.8688,0,0,0.8664,0.8669,0.8681,0.8688,0.8697,0.872,0.8756,0.8778,0.8794,0.8807,0.8837,0.8875,0.8852,0.8864,0.8852,0.888,0.8947,0.8852,0.8852,0.887,0.902,0.9039,0.9052,0.8933,0.8935,0.8937,0.9019,0,0.8747,0.8809,0.8793,0.8854,0.8881,0.885,0.8881,0.889,0.8888,0.891,0.8907,0.8934,0.8902,0.8909,0.8935,0.8933,0.8977,0.8927,0.8962,0.8963,0.8961,0.9066,0.9086,0.9164,0.903,0.9031,0.9033,0,0.8853,0.8869,0.8932,0.8935,0.8946,0.8975,0.8993,0.9015,0.9024,0.902,0.9033,0.9015,0.9051,0.9011,0.906,0.9027,0.904,0.9041,0.9044,0.9048,0.9003,0.9074,0.9189,0.9201,0.9049,0.9048,0.9047,0,0.8934,0.8971,0.9014,0.9021,0.9025,0.9046,0.9049,0.9056,0.907,0.9086,0.9094,0.9115,0.9127,0.9143,0.9132,0.9103,0.9183,0.9142,0.9181,0.9182,0.9201,0.92,0.9321,0.9208,0.9208,0.9207,0.9207,0,0.9029,0.907,0.905,0.9077,0.9121,0.9102,0.9146,0.9146,0.9152,0.9178,0.9152,0.9177,0.916,0.9184,0.9175,0.9217,0.9223,0.9221,0.9218,0.9224,0.9224,0.9233,0.9228,0.921,0.921,0.9209,0.9209,0,0.9128,0.9117,0.9161,0.9161,0.9162,0.9194,0.9194,0.9219,0.9213,0.9246,0.9253,0.9245,0.9271,0.9261,0.9289,0.9283,0.9338,0.9328,0.9334,0.9332,0.9372,0.9369,0.9504,0.9521,0.9396,0.9397,0.9398,0,0.919,0.922,0.9222,0.9237,0.9242,0.9266,0.928,0.9262,0.9277,0.9289,0.9312,0.9336,0.9355,0.9398,0.9395,0.9417,0.9408,0.9453,0.9411,0.9415,0.9409,0.9408,0.9411,0.9462,0.9464,0.9465,0.9466,0,0.9301,0.9293,0.9313,0.9331,0.9347,0.9361,0.9372,0.9386,0.9368,0.9387,0.9413,0.9427,0.9455,0.9479,0.9498,0.9502,0.9482,0.9479,0.9489,0.9496,0.9499,0.9498,0.9358,0.9476,0.9475,0.9474,0.9474,0.9473,0.9384,0.9409,0.9414,0.9437,0.9443,0.9453,0.9476,0.9472,0.9493,0.9514,0.9502,0.9533,0.954,0.9563,0.957,0.9593,0.9576,0.9591,0.9595,0.9599,0.9604,0.9494,0.9597,0.9596,0.9596,0.9596,0.9596,0,0.9494,0.9495,0.9516,0.9532,0.955,0.9527,0.9538,0.9554,0.9581,0.9589,0.9607,0.9637,0.966,0.9658,0.9679,0.9698,0.969,0.9705,0.9704,0.9705,0.9619,0.9608,0.9711,0.9711,0.9711,0.9711,0.9711,0.9711,0.9554,0.9594,0.9587,0.9631,0.9632,0.966,0.9668,0.9678,0.9684,0.9718,0.9737,0.9735,0.9739,0.976,0.978,0.9779,0.9788,0.9807,0.9802,0.9722,0.9711,0.97,0.969,0.9809,0.9809,0.9886,0.9887,0.9888]}]]